You are not logged in, Click here to log in
哈立德國王國際機場 / OERK 沙烏地阿拉伯王國
ICAO: OERK Country: 沙烏地阿拉伯王國
Latitude: 24.9582 Longitude: 46.7008
Total Arrivals: 1 Total Departures: 0
Latest Arrival: BR0090 (ZSNJ-OERK)Stone. Chang Latest Departure: (-).
Scenery:
METAR : OERK 080200Z 00000KT 9999 FEW040 14/12 Q1017 NOSIG

哈立德國王國際機場